Location: Observatoires du Mont Megantic
(45.4500°N, 71.1500°W)
Time: 13:36:02
(UTC-04:00)

ISS - Visible Passes

Search period start: 21 July 2018 00:00
Search period end: 31 July 2018 00:00
Orbit: 402 x 408 km, 51.6° (Epoch: 21 July)

Date Brightness Start Highest point End Pass type
(mag) Time Alt. Az. Time Alt. Az. Time Alt. Az.
21 Jul -1.9 01:36:34 10° NW 01:39:33 31° N 01:42:32 10° ENE visible
21 Jul -4.0 03:13:01 10° WNW 03:16:18 83° SSW 03:19:36 10° ESE visible
21 Jul -3.8 21:30:19 10° SW 21:33:32 58° SE 21:36:46 10° ENE visible
21 Jul -2.1 23:07:07 10° W 23:10:10 35° NNW 23:13:14 10° NE visible
22 Jul -1.6 00:44:21 10° NW 00:47:14 27° N 00:50:07 10° ENE visible
22 Jul -3.4 02:20:52 10° WNW 02:24:09 62° NNE 02:27:24 10° ESE visible
22 Jul -2.6 03:57:46 10° W 04:00:24 22° SW 04:03:01 10° S visible
22 Jul -2.7 22:14:43 10° W 22:17:53 46° NNW 22:21:05 10° NE visible
22 Jul -1.6 23:52:02 10° WNW 23:54:53 26° N 23:57:44 10° ENE visible
23 Jul -2.1 01:28:45 10° NW 01:30:52 31° NNW 01:30:52 31° NNW visible
23 Jul -3.5 21:22:24 10° WSW 21:25:40 70° NNW 21:28:56 10° ENE visible
23 Jul -1.7 22:59:38 10° WNW 23:02:32 28° N 23:05:26 10° NE visible
24 Jul -2.0 00:36:35 10° NW 00:39:26 32° N 00:39:26 32° N visible
24 Jul -1.9 22:07:11 10° W 22:10:11 32° NNW 22:13:12 10° NE visible
24 Jul -1.8 23:44:22 10° NW 23:47:16 28° N 23:48:30 22° NE visible
25 Jul -0.9 01:20:49 10° WNW 01:21:06 12° WNW 01:21:06 12° WNW visible
25 Jul -2.4 21:14:44 10° W 21:17:52 41° NNW 21:21:00 10° NE visible
25 Jul -1.7 22:52:02 10° WNW 22:54:53 26° N 22:57:42 10° ENE visible
26 Jul -1.7 00:28:40 10° NW 00:30:19 25° NW 00:30:19 25° NW visible
26 Jul -1.7 21:59:37 10° WNW 22:02:29 27° N 22:05:21 10° NE visible
26 Jul -2.4 23:36:29 10° NW 23:39:33 35° NNE 23:39:37 35° NNE visible
27 Jul -1.9 21:07:09 10° WNW 21:10:06 30° N 21:13:03 10° NE visible
27 Jul -2.0 22:44:14 10° NW 22:47:10 29° N 22:48:57 18° ENE visible
28 Jul -1.3 00:20:40 10° WNW 00:21:34 17° WNW 00:21:34 17° WNW visible
28 Jul -1.8 21:51:55 10° WNW 21:54:46 27° N 21:57:37 10° ENE visible
28 Jul -2.6 23:28:28 10° NW 23:30:57 42° NNW 23:30:57 42° NNW visible
29 Jul -1.8 20:59:29 10° WNW 21:02:20 26° N 21:05:11 10° ENE visible
29 Jul -2.6 22:36:15 10° NW 22:39:22 39° NNE 22:40:21 30° ENE visible
30 Jul -0.8 00:12:45 10° WNW 00:12:58 12° WNW 00:12:58 12° WNW visible
30 Jul -2.2 21:44:00 10° NW 21:46:58 31° NNE 21:49:46 11° ENE visible
30 Jul -2.3 23:20:25 10° WNW 23:22:24 33° WNW 23:22:24 33° WNW visible
